Location: Boda
(47.1872°N, 9.5454°E)
Time: 09:41:03
(UTC+00:00)

MOZ.5/SAFIR/RUBIN 5/SL-8 - Pass Details

Date: 14 May 2021
Orbit: 678 x 704 km, 98.1° (Epoch: 16 June)

Event Time Altitude Azimuth Distance (km) Brightness Sun altitude
Exits shadow 00:07:49 35° 119° (ESE) 1,095 4.6 -23.2°
Maximum altitude 00:09:18 48° 70° (ENE) 885 4.5 -23.2°
Drops below altitude 10° 00:13:47 10° 357° (N) 2,132 7.3 -23.0°
Sets 00:16:05 0° 352° (N) 3,054 8.2 -22.9°
